Station Historical Data
Daily Summary for February 8, 2012 Units:  English    Metric   Both
« Previous Day
Next Day »
Daily Weekly Monthly Yearly Custom
  High: Low: Average:
Temperature: 47.6 °F 36.3 °F 43.1 °F
Dew Point: 39.5 °F 31.3 °F 36.3 °F
Humidity: 90% 63% 77%
Wind Speed: 15.0mph 0.0mph 5.1mph
Wind Gust: 15.0mph - -
Wind- - WNW
Pressure: 30.34 in 30.21 in -
Precipitation: 0.00 in    
Historical Graphs
 
 
Tabular Data for February 8, 2012
Time Temperature Dew Point Pressure Wind Wind Speed Wind Gust Humidity Rainfall Rate (Hourly) Conditions
00:00 47.6 °F 35.6 °F 30.22 in NW 6.0 mph 9.0 mph 63% 0.00 in
00:01 47.6 °F 36.0 °F 30.22 in NW 3.0 mph 9.0 mph 64% 0.00 in
00:06 47.5 °F 35.9 °F 30.22 in NNW 4.0 mph 6.0 mph 64% 0.00 in
00:11 47.4 °F 36.2 °F 30.22 in NW 5.0 mph 5.0 mph 65% 0.00 in
00:16 47.3 °F 36.2 °F 30.22 in NNW 3.0 mph 6.0 mph 65% 0.00 in
00:21 47.2 °F 36.0 °F 30.22 in NNW 4.0 mph 8.0 mph 65% 0.00 in
00:26 47.2 °F 36.4 °F 30.22 in NNW 4.0 mph 7.0 mph 66% 0.00 in
00:31 47.1 °F 36.3 °F 30.22 in NNW 4.0 mph 5.0 mph 66% 0.00 in
00:36 47.1 °F 36.3 °F 30.22 in NNW 2.0 mph 6.0 mph 66% 0.00 in
00:41 47.0 °F 36.6 °F 30.23 in NNW 2.0 mph 3.0 mph 67% 0.00 in
00:46 46.8 °F 36.4 °F 30.22 in North 2.0 mph 3.0 mph 67% 0.00 in
00:51 46.8 °F 36.4 °F 30.23 in NNW 1.0 mph 1.0 mph 67% 0.00 in
00:56 46.8 °F 36.8 °F 30.22 in Calm   1.0 mph 68% 0.00 in
01:01 46.7 °F 36.7 °F 30.23 in North 1.0 mph 1.0 mph 68% 0.00 in
01:06 46.7 °F 36.7 °F 30.23 in North 1.0 mph 1.0 mph 68% 0.00 in
01:11 46.5 °F 37.3 °F 30.23 in NNW 1.0 mph 1.0 mph 70% 0.00 in
01:16 46.5 °F 37.3 °F 30.23 in NW 2.0 mph 2.0 mph 70% 0.00 in
01:21 46.3 °F 37.4 °F 30.23 in WNW 2.0 mph 2.0 mph 71% 0.00 in
01:26 46.3 °F 37.1 °F 30.23 in WNW 2.0 mph 3.0 mph 70% 0.00 in
01:31 46.3 °F 36.7 °F 30.23 in WNW 3.0 mph 3.0 mph 69% 0.00 in
01:36 46.4 °F 36.4 °F 30.23 in NW 1.0 mph 3.0 mph 68% 0.00 in
01:41 46.4 °F 36.8 °F 30.23 in Calm   1.0 mph 69% 0.00 in
01:46 46.3 °F 36.7 °F 30.23 in Calm   1.0 mph 69% 0.00 in
01:52 46.3 °F 36.7 °F 30.23 in West 1.0 mph 1.0 mph 69% 0.00 in
01:57 46.2 °F 37.0 °F 30.23 in Calm   2.0 mph 70% 0.00 in
02:02 46.1 °F 36.9 °F 30.23 in West 1.0 mph 1.0 mph 70% 0.00 in
02:07 46.0 °F 36.8 °F 30.23 in Calm   1.0 mph 70% 0.00 in
02:12 46.0 °F 36.8 °F 30.23 in Calm   1.0 mph 70% 0.00 in
02:17 46.0 °F 36.8 °F 30.22 in Calm   1.0 mph 70% 0.00 in
02:22 45.9 °F 36.7 °F 30.22 in WNW 2.0 mph 2.0 mph 70% 0.00 in
02:27 45.8 °F 36.6 °F 30.22 in NW 1.0 mph 2.0 mph 70% 0.00 in
02:32 45.7 °F 36.5 °F 30.22 in WNW 1.0 mph 3.0 mph 70% 0.00 in
02:37 45.6 °F 36.8 °F 30.22 in WNW 1.0 mph 2.0 mph 71% 0.00 in
02:42 45.5 °F 36.3 °F 30.22 in NW 2.0 mph 2.0 mph 70% 0.00 in
02:47 45.5 °F 36.7 °F 30.22 in WNW 1.0 mph 3.0 mph 71% 0.00 in
02:52 45.3 °F 36.5 °F 30.22 in WNW 2.0 mph 3.0 mph 71% 0.00 in
02:57 45.3 °F 36.5 °F 30.22 in WNW 4.0 mph 4.0 mph 71% 0.00 in
03:02 45.3 °F 36.5 °F 30.22 in NW 1.0 mph 4.0 mph 71% 0.00 in
03:07 45.1 °F 36.3 °F 30.22 in WNW 1.0 mph 4.0 mph 71% 0.00 in
03:12 44.9 °F 36.1 °F 30.22 in WNW 2.0 mph 3.0 mph 71% 0.00 in
03:17 44.7 °F 36.2 °F 30.22 in WNW 1.0 mph 3.0 mph 72% 0.00 in
03:22 44.7 °F 36.2 °F 30.22 in WNW 3.0 mph 4.0 mph 72% 0.00 in
03:27 44.6 °F 36.2 °F 30.22 in NW 3.0 mph 5.0 mph 72% 0.00 in
03:32 44.5 °F 36.4 °F 30.22 in WNW 3.0 mph 6.0 mph 73% 0.00 in
03:37 44.3 °F 36.2 °F 30.22 in WNW 6.0 mph 6.0 mph 73% 0.00 in
03:42 44.3 °F 36.5 °F 30.22 in NW 3.0 mph 5.0 mph 74% 0.00 in
03:47 44.2 °F 36.5 °F 30.21 in NW 3.0 mph 5.0 mph 74% 0.00 in
03:52 44.1 °F 36.4 °F 30.21 in WNW 3.0 mph 5.0 mph 74% 0.00 in
03:57 44.2 °F 36.5 °F 30.21 in WNW 3.0 mph 6.0 mph 74% 0.00 in
04:02 44.3 °F 36.5 °F 30.21 in WNW 5.0 mph 7.0 mph 74% 0.00 in
04:07 44.3 °F 36.5 °F 30.21 in WNW 5.0 mph 7.0 mph 74% 0.00 in
04:12 44.1 °F 36.7 °F 30.21 in NW 3.0 mph 5.0 mph 75% 0.00 in
04:17 44.1 °F 36.7 °F 30.21 in WNW 3.0 mph 6.0 mph 75% 0.00 in
04:22 44.0 °F 36.6 °F 30.21 in WNW 4.0 mph 5.0 mph 75% 0.00 in
04:27 43.9 °F 36.5 °F 30.21 in WNW 4.0 mph 8.0 mph 75% 0.00 in
04:32 43.7 °F 36.6 °F 30.21 in NW 4.0 mph 6.0 mph 76% 0.00 in
04:37 43.6 °F 36.5 °F 30.21 in NW 4.0 mph 6.0 mph 76% 0.00 in
04:42 43.5 °F 36.5 °F 30.21 in NW 6.0 mph 8.0 mph 76% 0.00 in
04:47 43.5 °F 36.8 °F 30.21 in NW 3.0 mph 6.0 mph 77% 0.00 in
04:52 43.4 °F 36.7 °F 30.21 in NW 5.0 mph 7.0 mph 77% 0.00 in
04:57 43.5 °F 36.8 °F 30.21 in NW 7.0 mph 9.0 mph 77% 0.00 in
05:02 43.5 °F 36.8 °F 30.21 in WNW 7.0 mph 9.0 mph 77% 0.00 in
05:07 43.6 °F 36.9 °F 30.21 in WNW 7.0 mph 11.0 mph 77% 0.00 in
05:12 43.6 °F 36.9 °F 30.21 in NW 6.0 mph 9.0 mph 77% 0.00 in
05:17 43.6 °F 36.9 °F 30.21 in NW 6.0 mph 8.0 mph 77% 0.00 in
05:22 43.6 °F 36.9 °F 30.22 in NW 10.0 mph 10.0 mph 77% 0.00 in
05:27 43.6 °F 37.2 °F 30.22 in NW 6.0 mph 10.0 mph 78% 0.00 in
05:32 43.5 °F 37.1 °F 30.22 in WNW 6.0 mph 9.0 mph 78% 0.00 in
05:37 43.4 °F 37.3 °F 30.22 in NW 6.0 mph 10.0 mph 79% 0.00 in
05:42 43.3 °F 37.2 °F 30.22 in NW 6.0 mph 11.0 mph 79% 0.00 in
05:47 43.3 °F 37.6 °F 30.23 in NW 6.0 mph 10.0 mph 80% 0.00 in
05:52 43.2 °F 37.5 °F 30.23 in NNW 9.0 mph 12.0 mph 80% 0.00 in
05:57 43.1 °F 37.4 °F 30.23 in NNW 9.0 mph 11.0 mph 80% 0.00 in
06:02 42.9 °F 37.5 °F 30.23 in NW 6.0 mph 7.0 mph 81% 0.00 in
06:07 42.6 °F 37.2 °F 30.23 in NW 1.0 mph 6.0 mph 81% 0.00 in
06:12 42.3 °F 37.2 °F 30.24 in NW 3.0 mph 7.0 mph 82% 0.00 in
06:17 42.1 °F 37.3 °F 30.24 in NW 6.0 mph 6.0 mph 83% 0.00 in
06:22 42.2 °F 37.4 °F 30.24 in NW 2.0 mph 7.0 mph 83% 0.00 in
06:27 42.2 °F 37.7 °F 30.24 in NNW 5.0 mph 6.0 mph 84% 0.00 in
06:32 42.1 °F 37.6 °F 30.24 in NW 4.0 mph 6.0 mph 84% 0.00 in
06:37 42.0 °F 37.5 °F 30.25 in NW 5.0 mph 6.0 mph 84% 0.00 in
06:42 41.8 °F 37.6 °F 30.25 in NNW 4.0 mph 4.0 mph 85% 0.00 in
06:47 41.6 °F 37.4 °F 30.25 in WNW 3.0 mph 5.0 mph 85% 0.00 in
06:52 41.4 °F 37.5 °F 30.25 in NW 4.0 mph 6.0 mph 86% 0.00 in
06:57 41.3 °F 37.7 °F 30.26 in WNW 5.0 mph 7.0 mph 87% 0.00 in
07:02 41.2 °F 37.9 °F 30.26 in WNW 3.0 mph 8.0 mph 88% 0.00 in
07:07 41.2 °F 37.9 °F 30.26 in NW 5.0 mph 9.0 mph 88% 0.00 in
07:12 41.0 °F 37.7 °F 30.26 in NW 6.0 mph 7.0 mph 88% 0.00 in
07:17 40.9 °F 37.6 °F 30.26 in NW 5.0 mph 7.0 mph 88% 0.00 in
07:22 40.7 °F 37.7 °F 30.26 in NNW 8.0 mph 8.0 mph 89% 0.00 in
07:27 40.6 °F 37.6 °F 30.26 in NNW 3.0 mph 5.0 mph 89% 0.00 in
07:32 40.4 °F 37.4 °F 30.27 in WNW 4.0 mph 5.0 mph 89% 0.00 in
07:37 40.3 °F 37.3 °F 30.27 in NW 3.0 mph 4.0 mph 89% 0.00 in
07:42 40.4 °F 37.7 °F 30.27 in NNW 3.0 mph 6.0 mph 90% 0.00 in
07:47 40.6 °F 37.6 °F 30.27 in WNW 4.0 mph 6.0 mph 89% 0.00 in
07:52 40.7 °F 37.7 °F 30.27 in NNW 2.0 mph 7.0 mph 89% 0.00 in
07:57 40.7 °F 37.7 °F 30.28 in WNW 4.0 mph 5.0 mph 89% 0.00 in
08:02 40.6 °F 37.6 °F 30.28 in NW 4.0 mph 4.0 mph 89% 0.00 in
08:07 40.6 °F 37.3 °F 30.28 in North 4.0 mph 7.0 mph 88% 0.00 in
08:13 40.6 °F 37.3 °F 30.28 in NNW 5.0 mph 6.0 mph 88% 0.00 in
08:18 40.7 °F 37.7 °F 30.28 in NNW 3.0 mph 6.0 mph 89% 0.00 in
08:23 40.9 °F 37.6 °F 30.28 in North 4.0 mph 5.0 mph 88% 0.00 in
08:28 41.1 °F 37.8 °F 30.28 in NW 4.0 mph 4.0 mph 88% 0.00 in
08:33 41.3 °F 38.0 °F 30.28 in NNW 3.0 mph 6.0 mph 88% 0.00 in
08:38 41.5 °F 38.2 °F 30.29 in NW 5.0 mph 7.0 mph 88% 0.00 in
08:43 41.6 °F 38.3 °F 30.29 in NNW 3.0 mph 6.0 mph 88% 0.00 in
08:48 41.7 °F 38.1 °F 30.29 in NNW 3.0 mph 6.0 mph 87% 0.00 in
08:53 41.7 °F 38.1 °F 30.29 in NW 3.0 mph 8.0 mph 87% 0.00 in
08:58 41.9 °F 38.6 °F 30.30 in NW 3.0 mph 5.0 mph 88% 0.00 in
09:03 41.9 °F 38.6 °F 30.30 in NW 5.0 mph 6.0 mph 88% 0.00 in
09:08 42.0 °F 38.4 °F 30.30 in NNW 4.0 mph 6.0 mph 87% 0.00 in
09:13 42.1 °F 38.8 °F 30.30 in NW 5.0 mph 6.0 mph 88% 0.00 in
09:18 42.2 °F 38.6 °F 30.31 in NNW 3.0 mph 6.0 mph 87% 0.00 in
09:23 42.3 °F 38.7 °F 30.31 in NNW 4.0 mph 7.0 mph 87% 0.00 in
09:28 42.3 °F 38.4 °F 30.31 in NW 6.0 mph 8.0 mph 86% 0.00 in
09:33 42.3 °F 38.4 °F 30.30 in North 7.0 mph 7.0 mph 86% 0.00 in
09:38 42.6 °F 38.7 °F 30.31 in North 5.0 mph 5.0 mph 86% 0.00 in
09:43 43.3 °F 39.4 °F 30.30 in NW 3.0 mph 5.0 mph 86% 0.00 in
09:48 43.6 °F 38.8 °F 30.30 in NNW 3.0 mph 7.0 mph 83% 0.00 in
09:53 43.7 °F 38.6 °F 30.30 in NNE 5.0 mph 10.0 mph 82% 0.00 in
09:58 44.1 °F 39.3 °F 30.30 in NNW 4.0 mph 6.0 mph 83% 0.00 in
10:04 44.5 °F 39.0 °F 30.30 in North 10.0 mph 10.0 mph 81% 0.00 in
10:08 44.4 °F 38.6 °F 30.30 in North 4.0 mph 9.0 mph 80% 0.00 in
10:14 44.8 °F 39.0 °F 30.31 in NW 5.0 mph 8.0 mph 80% 0.00 in
10:19 45.3 °F 39.2 °F 30.31 in NNW 7.0 mph 10.0 mph 79% 0.00 in
10:24 45.5 °F 39.4 °F 30.31 in NNW 7.0 mph 8.0 mph 79% 0.00 in
10:29 44.9 °F 38.1 °F 30.31 in WNW 6.0 mph 13.0 mph 77% 0.00 in
10:34 44.3 °F 37.9 °F 30.31 in NW 9.0 mph 12.0 mph 78% 0.00 in
10:39 45.2 °F 39.4 °F 30.31 in NW 5.0 mph 9.0 mph 80% 0.00 in
10:44 46.0 °F 39.5 °F 30.31 in NNW 5.0 mph 10.0 mph 78% 0.00 in
10:49 46.6 °F 39.1 °F 30.31 in NW 6.0 mph 9.0 mph 75% 0.00 in
10:54 45.5 °F 38.0 °F 30.31 in NNW 9.0 mph 11.0 mph 75% 0.00 in
10:59 44.8 °F 37.7 °F 30.31 in NW 7.0 mph 11.0 mph 76% 0.00 in
11:04 45.3 °F 38.9 °F 30.31 in WNW 3.0 mph 9.0 mph 78% 0.00 in
11:09 46.0 °F 38.2 °F 30.31 in NW 6.0 mph 15.0 mph 74% 0.00 in
11:14 45.2 °F 37.4 °F 30.31 in NW 10.0 mph 10.0 mph 74% 0.00 in
11:19 45.5 °F 38.0 °F 30.31 in NW 12.0 mph 14.0 mph 75% 0.00 in
11:24 46.4 °F 38.9 °F 30.31 in NNW 11.0 mph 12.0 mph 75% 0.00 in
11:29 47.1 °F 38.5 °F 30.32 in WNW 7.0 mph 10.0 mph 72% 0.00 in
11:34 46.3 °F 37.4 °F 30.32 in NW 6.0 mph 11.0 mph 71% 0.00 in
11:39 45.9 °F 37.8 °F 30.33 in WNW 7.0 mph 10.0 mph 73% 0.00 in
11:44 45.8 °F 38.0 °F 30.32 in NW 6.0 mph 13.0 mph 74% 0.00 in
11:49 45.5 °F 37.4 °F 30.31 in NNW 5.0 mph 10.0 mph 73% 0.00 in
11:54 45.7 °F 38.6 °F 30.30 in NW 7.0 mph 9.0 mph 76% 0.00 in
11:59 46.0 °F 38.5 °F 30.30 in NNW 6.0 mph 11.0 mph 75% 0.00 in
12:04 46.5 °F 38.0 °F 30.31 in WNW 7.0 mph 10.0 mph 72% 0.00 in
12:09 46.5 °F 37.6 °F 30.31 in WNW 8.0 mph 8.0 mph 71% 0.00 in
12:14 46.7 °F 38.5 °F 30.30 in WNW 8.0 mph 9.0 mph 73% 0.00 in
12:19 47.2 °F 37.6 °F 30.30 in NW 5.0 mph 10.0 mph 69% 0.00 in
12:24 46.8 °F 37.2 °F 30.30 in WNW 4.0 mph 8.0 mph 69% 0.00 in
12:29 46.4 °F 37.2 °F 30.30 in NW 7.0 mph 9.0 mph 70% 0.00 in
12:34 46.0 °F 37.5 °F 30.30 in WNW 4.0 mph 9.0 mph 72% 0.00 in
12:39 46.1 °F 37.6 °F 30.30 in West 5.0 mph 6.0 mph 72% 0.00 in
12:44 46.0 °F 36.8 °F 30.30 in WNW 7.0 mph 9.0 mph 70% 0.00 in
12:50 45.7 °F 36.8 °F 30.30 in NW 4.0 mph 10.0 mph 71% 0.00 in
12:55 45.8 °F 37.3 °F 30.30 in NNW 7.0 mph 9.0 mph 72% 0.00 in
13:00 46.1 °F 37.9 °F 30.30 in NW 4.0 mph 8.0 mph 73% 0.00 in
13:05 46.1 °F 37.2 °F 30.29 in NNW 6.0 mph 7.0 mph 71% 0.00 in
13:10 45.8 °F 37.3 °F 30.29 in NW 7.0 mph 9.0 mph 72% 0.00 in
13:15 45.8 °F 37.3 °F 30.29 in NW 4.0 mph 8.0 mph 72% 0.00 in
13:20 46.1 °F 37.9 °F 30.28 in NNW 7.0 mph 12.0 mph 73% 0.00 in
13:25 46.3 °F 36.7 °F 30.28 in NW 6.0 mph 10.0 mph 69% 0.00 in
13:30 46.1 °F 36.9 °F 30.28 in NNW 5.0 mph 10.0 mph 70% 0.00 in
13:35 45.9 °F 37.0 °F 30.28 in North 5.0 mph 9.0 mph 71% 0.00 in
13:40 46.0 °F 37.1 °F 30.28 in NNW 3.0 mph 5.0 mph 71% 0.00 in
13:45 46.0 °F 37.1 °F 30.28 in NW 7.0 mph 9.0 mph 71% 0.00 in
13:46 46.0 °F 37.1 °F 30.28 in NNW 5.0 mph 9.0 mph 71% 0.00 in
13:51 45.7 °F 37.2 °F 30.28 in NW 3.0 mph 6.0 mph 72% 0.00 in
13:56 45.7 °F 37.2 °F 30.28 in NW 7.0 mph 9.0 mph 72% 0.00 in
13:57 45.7 °F 36.8 °F 30.28 in North 3.0 mph 7.0 mph 71% 0.00 in
14:02 45.8 °F 37.0 °F 30.28 in WNW 5.0 mph 7.0 mph 71% 0.00 in
14:07 45.9 °F 36.7 °F 30.28 in WNW 3.0 mph 7.0 mph 70% 0.00 in
14:12 46.4 °F 37.9 °F 30.27 in NNW 4.0 mph 9.0 mph 72% 0.00 in
14:17 46.6 °F 37.3 °F 30.27 in NW 9.0 mph 9.0 mph 70% 0.00 in
14:22 46.6 °F 37.0 °F 30.27 in NNW 2.0 mph 10.0 mph 69% 0.00 in
14:27 46.7 °F 36.7 °F 30.27 in NW 5.0 mph 6.0 mph 68% 0.00 in
14:32 46.4 °F 36.4 °F 30.27 in WNW 9.0 mph 9.0 mph 68% 0.00 in
14:37 46.3 °F 36.7 °F 30.27 in WNW 3.0 mph 6.0 mph 69% 0.00 in
14:42 46.3 °F 36.3 °F 30.27 in WNW 7.0 mph 10.0 mph 68% 0.00 in
14:47 46.3 °F 36.0 °F 30.27 in NW 5.0 mph 11.0 mph 67% 0.00 in
14:52 46.4 °F 35.7 °F 30.28 in NW 4.0 mph 9.0 mph 66% 0.00 in
14:57 46.5 °F 36.2 °F 30.27 in NNW 6.0 mph 9.0 mph 67% 0.00 in
15:02 46.5 °F 35.8 °F 30.27 in NNW 8.0 mph 11.0 mph 66% 0.00 in
15:07 46.5 °F 35.8 °F 30.27 in WNW 4.0 mph 12.0 mph 66% 0.00 in
15:12 46.6 °F 35.5 °F 30.27 in NW 7.0 mph 10.0 mph 65% 0.00 in
15:17 46.4 °F 35.3 °F 30.27 in WNW 6.0 mph 9.0 mph 65% 0.00 in
15:22 46.4 °F 36.0 °F 30.27 in NW 12.0 mph 13.0 mph 67% 0.00 in
15:27 46.1 °F 35.8 °F 30.27 in NNW 6.0 mph 10.0 mph 67% 0.00 in
15:32 46.1 °F 35.8 °F 30.27 in NW 9.0 mph 11.0 mph 67% 0.00 in
15:37 45.9 °F 35.6 °F 30.27 in NNW 8.0 mph 10.0 mph 67% 0.00 in
15:42 45.9 °F 35.6 °F 30.27 in WNW 6.0 mph 10.0 mph 67% 0.00 in
15:47 45.8 °F 36.2 °F 30.28 in WNW 6.0 mph 10.0 mph 69% 0.00 in
15:52 46.0 °F 36.4 °F 30.27 in WNW 1.0 mph 6.0 mph 69% 0.00 in
15:57 46.3 °F 36.7 °F 30.27 in West 5.0 mph 8.0 mph 69% 0.00 in
16:02 46.2 °F 36.2 °F 30.27 in NW 8.0 mph 12.0 mph 68% 0.00 in
16:07 45.9 °F 37.0 °F 30.28 in NNW 8.0 mph 11.0 mph 71% 0.00 in
16:12 45.4 °F 36.6 °F 30.27 in NW 8.0 mph 10.0 mph 71% 0.00 in
16:17 45.0 °F 36.9 °F 30.27 in NNW 8.0 mph 11.0 mph 73% 0.00 in
16:22 44.7 °F 36.2 °F 30.27 in NW 4.0 mph 10.0 mph 72% 0.00 in
16:27 44.6 °F 36.2 °F 30.27 in NW 7.0 mph 10.0 mph 72% 0.00 in
16:32 44.5 °F 36.4 °F 30.27 in WNW 11.0 mph 11.0 mph 73% 0.00 in
16:37 44.4 °F 36.0 °F 30.27 in NW 8.0 mph 9.0 mph 72% 0.00 in
16:42 44.3 °F 36.5 °F 30.27 in NNW 10.0 mph 12.0 mph 74% 0.00 in
16:47 44.0 °F 36.6 °F 30.27 in WNW 8.0 mph 12.0 mph 75% 0.00 in
16:52 44.0 °F 36.6 °F 30.28 in WNW 9.0 mph 10.0 mph 75% 0.00 in
16:57 43.7 °F 36.6 °F 30.28 in NNW 4.0 mph 12.0 mph 76% 0.00 in
17:02 43.7 °F 36.6 °F 30.28 in NW 6.0 mph 9.0 mph 76% 0.00 in
17:07 43.5 °F 36.8 °F 30.28 in WNW 5.0 mph 10.0 mph 77% 0.00 in
17:12 43.5 °F 37.1 °F 30.28 in WNW 8.0 mph 8.0 mph 78% 0.00 in
17:17 43.3 °F 36.6 °F 30.28 in NW 6.0 mph 12.0 mph 77% 0.00 in
17:22 43.0 °F 36.3 °F 30.28 in NW 7.0 mph 10.0 mph 77% 0.00 in
17:27 42.8 °F 36.1 °F 30.28 in NW 7.0 mph 9.0 mph 77% 0.00 in
17:32 42.7 °F 36.3 °F 30.28 in NW 9.0 mph 11.0 mph 78% 0.00 in
17:37 42.6 °F 36.2 °F 30.29 in WNW 7.0 mph 9.0 mph 78% 0.00 in
17:42 42.5 °F 35.8 °F 30.28 in NW 4.0 mph 9.0 mph 77% 0.00 in
17:47 42.5 °F 36.1 °F 30.29 in NW 4.0 mph 7.0 mph 78% 0.00 in
17:53 42.3 °F 35.6 °F 30.29 in NW 8.0 mph 9.0 mph 77% 0.00 in
17:58 42.2 °F 35.5 °F 30.29 in NW 5.0 mph 8.0 mph 77% 0.00 in
18:03 42.0 °F 35.0 °F 30.29 in NW 5.0 mph 9.0 mph 76% 0.00 in
18:08 41.9 °F 35.2 °F 30.29 in NW 3.0 mph 6.0 mph 77% 0.00 in
18:13 41.9 °F 35.2 °F 30.29 in NW 2.0 mph 6.0 mph 77% 0.00 in
18:18 41.8 °F 35.5 °F 30.30 in WNW 6.0 mph 8.0 mph 78% 0.00 in
18:23 41.6 °F 35.3 °F 30.30 in NW 9.0 mph 9.0 mph 78% 0.00 in
18:28 41.3 °F 35.0 °F 30.30 in WNW 5.0 mph 8.0 mph 78% 0.00 in
18:33 41.2 °F 34.9 °F 30.30 in WNW 4.0 mph 8.0 mph 78% 0.00 in
18:38 41.1 °F 34.5 °F 30.30 in NW 5.0 mph 6.0 mph 77% 0.00 in
18:43 40.9 °F 34.3 °F 30.30 in NNW 3.0 mph 10.0 mph 77% 0.00 in
18:48 40.8 °F 34.5 °F 30.30 in WNW 6.0 mph 9.0 mph 78% 0.00 in
18:53 40.7 °F 34.4 °F 30.30 in NW 4.0 mph 8.0 mph 78% 0.00 in
18:58 40.6 °F 34.3 °F 30.31 in WNW 12.0 mph 12.0 mph 78% 0.00 in
19:03 40.4 °F 34.1 °F 30.31 in NW 4.0 mph 12.0 mph 78% 0.00 in
19:08 40.3 °F 34.3 °F 30.31 in WNW 4.0 mph 7.0 mph 79% 0.00 in
19:13 40.1 °F 34.1 °F 30.31 in NW 4.0 mph 7.0 mph 79% 0.00 in
19:18 40.1 °F 34.4 °F 30.31 in NW 6.0 mph 6.0 mph 80% 0.00 in
19:23 40.0 °F 34.3 °F 30.31 in NW 2.0 mph 6.0 mph 80% 0.00 in
19:28 39.9 °F 34.2 °F 30.31 in NW 4.0 mph 6.0 mph 80% 0.00 in
19:33 39.8 °F 34.1 °F 30.31 in NW 3.0 mph 9.0 mph 80% 0.00 in
19:38 39.7 °F 34.0 °F 30.31 in WNW 8.0 mph 8.0 mph 80% 0.00 in
19:43 39.7 °F 34.0 °F 30.31 in NW 9.0 mph 10.0 mph 80% 0.00 in
19:48 39.6 °F 34.3 °F 30.31 in WNW 4.0 mph 8.0 mph 81% 0.00 in
19:53 39.5 °F 34.2 °F 30.31 in NNW 4.0 mph 9.0 mph 81% 0.00 in
19:58 39.5 °F 34.2 °F 30.31 in NW 4.0 mph 8.0 mph 81% 0.00 in
20:03 39.5 °F 34.2 °F 30.31 in North 6.0 mph 9.0 mph 81% 0.00 in
20:08 39.5 °F 34.2 °F 30.31 in NNW 5.0 mph 9.0 mph 81% 0.00 in
20:13 39.5 °F 34.5 °F 30.31 in NW 4.0 mph 7.0 mph 82% 0.00 in
20:18 39.5 °F 34.5 °F 30.31 in NW 5.0 mph 8.0 mph 82% 0.00 in
20:23 39.4 °F 34.7 °F 30.32 in WNW 3.0 mph 7.0 mph 83% 0.00 in
20:29 39.3 °F 34.6 °F 30.32 in NNW 7.0 mph 13.0 mph 83% 0.00 in
20:34 39.2 °F 34.5 °F 30.32 in NW 9.0 mph 11.0 mph 83% 0.00 in
20:39 39.1 °F 34.1 °F 30.32 in NNW 6.0 mph 11.0 mph 82% 0.00 in
20:44 39.0 °F 34.3 °F 30.32 in North 4.0 mph 8.0 mph 83% 0.00 in
20:49 38.9 °F 33.9 °F 30.32 in NW 7.0 mph 10.0 mph 82% 0.00 in
20:54 38.8 °F 34.1 °F 30.32 in NNW 8.0 mph 13.0 mph 83% 0.00 in
20:59 38.7 °F 34.3 °F 30.32 in North 15.0 mph 15.0 mph 84% 0.00 in
21:04 38.5 °F 34.1 °F 30.33 in NNW 9.0 mph 12.0 mph 84% 0.00 in
21:09 38.3 °F 33.9 °F 30.33 in NW 6.0 mph 12.0 mph 84% 0.00 in
21:14 38.0 °F 33.6 °F 30.33 in NNW 7.0 mph 10.0 mph 84% 0.00 in
21:19 37.9 °F 33.8 °F 30.33 in NNW 6.0 mph 10.0 mph 85% 0.00 in
21:24 37.8 °F 33.7 °F 30.33 in North 7.0 mph 10.0 mph 85% 0.00 in
21:29 37.7 °F 33.6 °F 30.33 in NE 6.0 mph 12.0 mph 85% 0.00 in
21:34 37.7 °F 33.9 °F 30.34 in NNW 6.0 mph 9.0 mph 86% 0.00 in
21:39 37.6 °F 33.5 °F 30.34 in NNW 9.0 mph 10.0 mph 85% 0.00 in
21:44 37.6 °F 33.8 °F 30.34 in North 9.0 mph 11.0 mph 86% 0.00 in
21:46 37.6 °F 33.8 °F 30.34 in North 8.0 mph 11.0 mph 86% 0.00 in
21:51 37.3 °F 33.5 °F 30.34 in NNW 8.0 mph 11.0 mph 86% 0.00 in
21:56 37.0 °F 33.2 °F 30.34 in NNE 7.0 mph 8.0 mph 86% 0.00 in
22:01 36.8 °F 33.3 °F 30.34 in NW 7.0 mph 9.0 mph 87% 0.00 in
22:06 36.6 °F 32.8 °F 30.34 in North 6.0 mph 12.0 mph 86% 0.00 in
22:11 36.5 °F 33.0 °F 30.34 in NNW 8.0 mph 8.0 mph 87% 0.00 in
22:16 36.5 °F 32.7 °F 30.34 in North 5.0 mph 9.0 mph 86% 0.00 in
22:21 36.5 °F 32.7 °F 30.33 in NNE 4.0 mph 7.0 mph 86% 0.00 in
22:26 36.6 °F 32.8 °F 30.33 in North 6.0 mph 6.0 mph 86% 0.00 in
22:31 36.6 °F 32.8 °F 30.34 in North 3.0 mph 8.0 mph 86% 0.00 in
22:36 36.6 °F 32.8 °F 30.33 in NNW 4.0 mph 5.0 mph 86% 0.00 in
22:41 36.6 °F 32.8 °F 30.33 in NNW 8.0 mph 8.0 mph 86% 0.00 in
22:46 36.7 °F 32.9 °F 30.33 in NNW 6.0 mph 8.0 mph 86% 0.00 in
22:51 36.7 °F 32.9 °F 30.33 in NNW 4.0 mph 7.0 mph 86% 0.00 in
22:56 36.7 °F 32.6 °F 30.33 in NNE 7.0 mph 10.0 mph 85% 0.00 in
23:01 36.8 °F 32.7 °F 30.33 in NNW 5.0 mph 8.0 mph 85% 0.00 in
23:06 36.8 °F 32.7 °F 30.34 in North 7.0 mph 10.0 mph 85% 0.00 in
23:11 36.8 °F 32.7 °F 30.34 in North 10.0 mph 10.0 mph 85% 0.00 in
23:16 36.8 °F 33.0 °F 30.34 in NNE 4.0 mph 8.0 mph 86% 0.00 in
23:21 36.8 °F 33.0 °F 30.34 in NW 4.0 mph 8.0 mph 86% 0.00 in
23:26 36.8 °F 33.0 °F 30.34 in North 3.0 mph 6.0 mph 86% 0.00 in
23:31 36.8 °F 33.0 °F 30.34 in North 8.0 mph 9.0 mph 86% 0.00 in
23:36 36.7 °F 32.3 °F 30.34 in North 3.0 mph 8.0 mph 84% 0.00 in
23:41 36.5 °F 31.8 °F 30.34 in NNW 5.0 mph 10.0 mph 83% 0.00 in
23:46 36.4 °F 31.7 °F 30.34 in NNW 5.0 mph 8.0 mph 83% 0.00 in
23:52 36.4 °F 31.4 °F 30.33 in North 6.0 mph 12.0 mph 82% 0.00 in
23:57 36.3 °F 31.3 °F 30.33 in NNW 8.0 mph 9.0 mph 82% 0.00 in
Compliments of Weather Underground